Satellite-Ground Cal/Val Site Overpasses Predictions

Prediction of Satellite NPP Overpassing Cal/Val Site: Antarctic Dome C

Ground Cal/Val Site Location: Latitude: -75.10, Longitude: 123.35; Satellite-Ground Site NADIR distance within 100 km.

Table of predicted overpasses for the next 14.0 days since TLE Epoch: 11/8/2012
Interval Starting Time Ending Time Minimum Distance Time Minimum Distance (km)
1 11/09/2012 15:05:35 11/09/2012 15:05:43 11/09/2012 15:05:39 95.57
2 11/10/2012 14:46:35 11/10/2012 14:47:04 11/10/2012 14:46:49 15.65
3 11/12/2012 07:29:25 11/12/2012 07:29:55 11/12/2012 07:29:40 0.30
4 11/15/2012 14:52:53 11/15/2012 14:53:21 11/15/2012 14:53:07 20.89
5 11/16/2012 14:34:11 11/16/2012 14:34:26 11/16/2012 14:34:18 86.07
6 11/17/2012 07:35:43 11/17/2012 07:36:10 11/17/2012 07:35:56 35.92
7 11/18/2012 07:16:58 11/18/2012 07:17:17 11/18/2012 07:17:07 74.19
8 11/20/2012 14:59:12 11/20/2012 14:59:36 11/20/2012 14:59:24 58.02
9 11/21/2012 14:40:21 11/21/2012 14:40:46 11/21/2012 14:40:34 51.09
